Flag for Canada Weather past 2 weeks in Dawson Creek, British Columbia, Canada

68 °F

Scattered clouds.

Feels Like: 68 °F
Forecast: 40 / 60 °F
Wind: 15 mph from Southwest

Location: Dawson Creek Airport

Current Time: Oct 8, 2015 at 3:55:07 PM

Latest Report: Oct 8, 2015 at 3:00 PM

Visibility: 9 mi

Pressure: 29.96 "Hg (27.71 "Hg at 668m altitude)

Humidity: 46%

Dew point: 46 °F

Location of Dawson CreekLocation

Historic Weather in Dawson Creek — Graph


Dawson Creek temperature yesterday

Maximum temperature yesterday: 59 °F (at 4:00 PM)
Minimum temperature yesterday: 34 °F (at 2:00 AM)
Average temperature yesterday: 41 °F

Past Weeks' High & Low Weather Summary

High72 °F (Sep 29, 3:00 PM)100% (Sep 24, 4:00 AM)30.65 "Hg (Sep 24, 4:00 AM)
Low23 °F (Oct 6, 3:00 AM)29% (Sep 25, 1:04 PM)29.78 "Hg (Sep 29, 3:00 PM)
Average44 °F74%30.05 "Hg
* Reported Sep 23 2:00 PM — Oct 8 2:00 PM, Dawson Creek, Weather by CustomWeather, © 2015

Note: Actual official high and low records may vary slightly from our data, if they occured in-between our weather recording intervals... More about our weather records


Dawson Creek weather history for previous 24 hours

Time TempWeatherWind HumidityBarometerVisibility
2:00 PM
Thu, Oct 8
68 °FBroken clouds.9 mph46%29.98 "Hg9 mi
1:00 PM66 °FSunny.12 mph49%30.00 "Hg9 mi
12:00 PM64 °FSunny.13 mph49%30.02 "Hg9 mi
11:00 AM61 °FSunny.7 mph55%30.04 "Hg9 mi
10:00 AM54 °FPartly sunny.3 mph72%30.06 "Hg9 mi
9:00 AM43 °FBroken clouds.2 mph87%30.08 "Hg9 mi
8:00 AM34 °FPassing clouds.No wind93%30.10 "Hg8 mi
7:00 AM34 °FClear.2 mph93%30.10 "Hg9 mi
6:00 AM36 °FPassing clouds.No wind93%30.09 "Hg9 mi
5:00 AM36 °FClear.No wind87%30.08 "Hg9 mi
4:00 AM36 °FClear.No wind93%30.09 "Hg9 mi
3:00 AM34 °FClear.3 mph100%30.11 "Hg9 mi
2:00 AM36 °FClear.3 mph93%30.11 "Hg9 mi
1:00 AM36 °FClear.2 mph100%30.10 "Hg9 mi
12:00 AM37 °FPassing clouds.2 mph87%30.09 "Hg9 mi
11:00 PM
Wed, Oct 7
39 °FMostly cloudy.2 mph87%30.08 "Hg9 mi
10:00 PM41 °FPassing clouds.3 mph87%30.06 "Hg9 mi
9:00 PM45 °FPassing clouds.3 mph76%30.07 "Hg9 mi
8:00 PM45 °FMostly cloudy.3 mph81%30.06 "Hg9 mi
7:00 PM46 °FMostly cloudy.2 mph71%30.05 "Hg9 mi
6:00 PM52 °FBroken clouds.2 mph62%30.03 "Hg9 mi
5:00 PM57 °FSunny.7 mph51%30.01 "Hg9 mi
4:00 PM59 °FRefreshingly cool.8 mph48%30.01 "Hg9 mi
Weather by CustomWeather, © 2015

See weather overviewHow to use our weather pages